Home   Weather   Kenema   Past weeks

Flag for Sierra Leone Past Weather in Kenema, Sierra Leone — Yesterday and Last 2 Weeks

75 °F

Passing clouds.

Feels Like: 74 °F
Forecast: 71 / 86 °F
Wind: No wind

Location: Roberts Field

Current Time: Oct 22, 2016 at 5:25:57 AM

Latest Report: Oct 22, 2016 at 4:30 AM

Visibility: N/A

Pressure: 29.89 "Hg

Humidity: 94%

Dew Point: 73 °F

Location of KenemaLocation

Past Weather in Kenema — Graph


Kenema Temperature Yesterday

Maximum temperature yesterday: 88 °F (at 12:00 PM)
Minimum temperature yesterday: 75 °F (at 7:00 AM)
Average temperature yesterday: 82 °F

High & Low Weather Summary for the Past Weeks

High90 °F (Oct 16, 1:30 PM)100% (Oct 8, 6:00 PM)29.95 "Hg (Oct 8, 6:00 PM)
Low73 °F (Oct 12, 6:30 AM)66% (Oct 16, 12:00 PM)29.77 "Hg (Oct 7, 4:30 PM)
Average79 °F89%29.88 "Hg
* Reported Oct 7 4:00 AM — Oct 22 4:30 AM, Kenema, Weather by CustomWeather, © 2016

Note: Actual official high and low records may vary slightly from our data, if they occured in-between our weather recording intervals... More about our weather records


Kenema Weather History for the Previous 24 Hours

Scroll right to see more
Time TempWeatherWind HumidityBarometerVisibility
4:30 AM
Sat, Oct 22
75 °FPassing clouds.No wind94%29.89 "HgN/A
3:00 AM75 °FPassing clouds.No wind94%29.89 "HgN/A
2:00 AM75 °FPassing clouds.No wind94%29.89 "HgN/A
1:30 AM75 °FPassing clouds.No wind94%29.89 "HgN/A
1:00 AM75 °FPassing clouds.No wind94%29.92 "HgN/A
12:00 AM77 °FPassing clouds.No wind94%29.92 "HgN/A
9:00 PM
Fri, Oct 21
79 °FPassing clouds.No wind94%29.89 "HgN/A
7:30 PM79 °FPassing clouds.No wind94%29.86 "HgN/A
7:00 PM81 °FPartly sunny.No wind89%29.86 "HgN/A
6:30 PM81 °FPartly sunny.No wind89%29.86 "HgN/A
6:00 PM82 °FPartly sunny.6 mph84%29.86 "HgN/A
5:30 PM84 °FThunderstorms. Partly sunny.9 mph79%29.83 "HgN/A
5:00 PM84 °FThunderstorms. Partly sunny.10 mph79%29.83 "HgN/A
4:30 PM86 °FThunderstorms. Partly sunny.9 mph75%29.83 "HgN/A
4:00 PM88 °FThunderstorms. Partly sunny.12 mph75%29.83 "HgN/A
3:30 PM88 °FPartly sunny.10 mph75%29.83 "HgN/A
3:00 PM88 °FPartly sunny.13 mph75%29.83 "HgN/A
2:30 PM86 °FPartly sunny.12 mph75%29.83 "HgN/A
2:00 PM88 °FPartly sunny.12 mph66%29.86 "HgN/A
1:30 PM88 °FPartly sunny.14 mph70%29.86 "HgN/A
1:00 PM88 °FPartly sunny.12 mph70%29.86 "HgN/A
12:30 PM88 °FPartly sunny.9 mph70%29.89 "HgN/A
12:00 PM88 °FPartly sunny.No wind66%29.89 "HgN/A
11:30 AM86 °FPartly sunny.7 mph75%29.89 "HgN/A
11:00 AM84 °FPartly sunny.No wind79%29.92 "HgN/A
10:30 AM82 °FWarm.7 mph79%29.92 "HgN/A
10:00 AM81 °FPartly sunny.No wind84%29.92 "HgN/A
9:30 AM81 °FScattered clouds.No wind84%29.92 "HgN/A
9:00 AM81 °FScattered clouds.6 mph84%29.92 "HgN/A
8:30 AM79 °FScattered clouds.No wind94%29.92 "HgN/A
8:00 AM77 °FThunderstorms. Scattered clouds.No wind94%29.89 "HgN/A
7:30 AM75 °FThunderstorms. Partly sunny.No wind100%29.89 "Hg6 mi
7:00 AM75 °FThunderstorms. Passing clouds.No wind100%29.89 "Hg6 mi
6:30 AM77 °FThunderstorms. Passing clouds.No wind94%29.89 "Hg4 mi
6:00 AM77 °FPassing clouds.No wind94%29.86 "Hg4 mi
5:00 AM77 °FPassing clouds.No wind94%29.86 "HgN/A
Weather by CustomWeather, © 2016

See weather overviewHow to use our weather pages